Home   Weather   Tuscaloosa   Past weeks

Flag for USA Past Weather in Tuscaloosa, Alabama, USA — Yesterday and Last 2 Weeks

55 °F


Feels Like: 55 °F
Forecast: 57 / 84 °F
Wind: No wind

Location: Tuscaloosa Municipal Airport

Current Time: Oct 28, 2016 at 7:19:36 AM

Latest Report: Oct 28, 2016 at 6:53 AM

Visibility: 7 mi

Pressure: 30.24 "Hg

Humidity: 96%

Dew Point: 54 °F

Location of TuscaloosaLocation

Past Weather in Tuscaloosa — Graph


Tuscaloosa Temperature Yesterday

Maximum temperature yesterday: 84 °F (at 1:53 PM)
Minimum temperature yesterday: 59 °F (at 11:53 PM)
Average temperature yesterday: 70 °F

High & Low Weather Summary for the Past Weeks

High90 °F (Oct 18, 3:53 PM)100% (Oct 28, 5:53 AM)30.32 "Hg (Oct 28, 5:53 AM)
Low39 °F (Oct 23, 6:53 AM)20% (Oct 23, 3:53 PM)29.90 "Hg (Oct 20, 2:53 PM)
Average68 °F65%30.13 "Hg
* Reported Oct 13 5:53 AM — Oct 28 5:53 AM, Tuscaloosa, Weather by CustomWeather, © 2016

Note: Actual official high and low records may vary slightly from our data, if they occured in-between our weather recording intervals... More about our weather records


Tuscaloosa Weather History for the Previous 24 Hours

Scroll right to see more
Time TempWeatherWind HumidityBarometerVisibility
5:53 AM
Fri, Oct 28
56 °FFog.No wind100%30.23 "Hg5 mi
4:53 AM57 °FClear.No wind93%30.22 "Hg9 mi
3:53 AM57 °FClear.No wind96%30.20 "Hg8 mi
2:53 AM59 °FPassing clouds.No wind93%30.21 "Hg10 mi
1:53 AM61 °FPartly cloudy.No wind90%30.22 "Hg10 mi
12:53 AM59 °FPassing clouds.No wind93%30.22 "Hg9 mi
11:53 PM
Thu, Oct 27
59 °FClear.No wind93%30.21 "Hg10 mi
10:53 PM61 °FClear.No wind87%30.22 "Hg10 mi
9:53 PM63 °FClear.No wind81%30.22 "Hg10 mi
8:53 PM66 °FClear.No wind75%30.22 "Hg10 mi
7:53 PM69 °FClear.No wind63%30.21 "Hg10 mi
6:53 PM72 °FClear.No wind57%30.20 "Hg10 mi
5:53 PM78 °FSunny.5 mph45%30.19 "Hg10 mi
4:53 PM80 °FSunny.6 mph42%30.17 "Hg8 mi
3:53 PM84 °FPartly sunny.7 mph37%30.17 "Hg10 mi
2:53 PM82 °FSunny.6 mph43%30.19 "Hg10 mi
1:53 PM84 °FPassing clouds.9 mph41%30.20 "Hg10 mi
12:53 PM83 °FPassing clouds.8 mph43%30.23 "Hg10 mi
11:53 AM80 °FSunny.5 mph47%30.26 "Hg10 mi
10:53 AM77 °FSunny.6 mph60%30.27 "Hg10 mi
9:53 AM73 °FSunny.3 mph69%30.27 "Hg10 mi
8:53 AM68 °FSunny.No wind82%30.27 "Hg7 mi
7:53 AM60 °FFog.No wind96%30.25 "Hg6 mi
Weather by CustomWeather, © 2016

See weather overviewHow to use our weather pages